Weather History for Raleigh-Durham Airport, NC

Change the Weather History Date:

Tuesday, October 30, 2012

  Actual Average Record
Temperature  
Mean Temperature 47 °F 57 °F  
Max Temperature 51 °F 69 °F 86 °F (1996)
Min Temperature 42 °F 45 °F 24 °F (1965)
Degree Days  
Heating Degree Days 18 9  
Month to date heating degree days 149 159  
Since 1 July heating degree days 159 180  
Cooling Degree Days 0 1  
Month to date cooling degree days 48 52  
Year to date cooling degree days 1871 1720  
Moisture  
Dew Point 32 °F    
Average Humidity 63    
Maximum Humidity 82    
Minimum Humidity 44    
Precipitation  
Precipitation 0.07 in 0.10 in 3.41 in (1917)
Month to date precipitation 1.83 3.15  
Year to date precipitation 37.29 37.05  
Sea Level Pressure  
Sea Level Pressure 29.42 in    
Wind  
Wind Speed 13 mph (WSW)    
Max Wind Speed 21 mph    
Max Gust Speed 32 mph    
Visibility 10 miles    
Events Rain    
T = Trace of Precipitation, MM = Missing Value Source: NWS Daily Summary

Daily Weather History Graph

Daily Weather History Graph

Search for Another Location

Airport:

Trip Planner

Search our weather history database for the weather conditions in past years. The results will help you decide how hot, cold, wet, or windy it might be!

Date:

Astronomy

Oct. 30, 2012 Rise Set
Actual Time 7:35 AM EDT 6:20 PM EDT
Civil Twilight 7:09 AM EDT 6:47 PM EDT
Nautical Twilight 6:39 AM EDT 7:17 PM EDT
Astronomical Twilight 6:09 AM EDT 7:47 PM EDT
Moon 6:52 PM EDT (10/30) 8:18 AM EDT (10/30)
Length of Visible Light 11h 37m
Length of Day
10h 45m
Full, 99% of the Moon is Illuminated
Oct 30
Full
Nov 6
Last Quarter
Nov 13
New
Nov 20
First Quarter
Nov 28
Full

Hourly Weather History & Observations

Time (EDT) Temp. Windchill Dew Point Humidity Pressure Visibility Wind Dir Wind Speed Gust Speed Precip Events Conditions
12:51 AM 42.1 °F 34.5 °F 37.0 °F 82% 29.30 in 10.0 mi West 15.0 mph 26.5 mph 0.06 in Rain Light Rain
1:51 AM 42.1 °F 35.2 °F 37.0 °F 82% 29.29 in 10.0 mi WSW 12.7 mph 23.0 mph 0.06 in Rain Light Rain
2:32 AM 42.8 °F 36.6 °F 37.4 °F 81% 29.29 in 10.0 mi WSW 11.5 mph - 0.01 in   Overcast
2:51 AM 42.8 °F 36.6 °F 35.6 °F 76% 29.29 in 10.0 mi WSW 11.5 mph - N/A   Overcast
3:51 AM 43.0 °F 36.0 °F 34.0 °F 71% 29.29 in 10.0 mi WSW 13.8 mph 24.2 mph N/A   Overcast
4:51 AM 44.1 °F 37.7 °F 32.0 °F 63% 29.30 in 10.0 mi WSW 12.7 mph - N/A   Overcast
5:51 AM 44.1 °F 36.8 °F 30.9 °F 60% 29.32 in 10.0 mi West 16.1 mph 24.2 mph N/A   Overcast
6:51 AM 44.1 °F 37.7 °F 30.9 °F 60% 29.34 in 10.0 mi West 12.7 mph 21.9 mph N/A   Overcast
7:51 AM 44.1 °F 37.4 °F 30.9 °F 60% 29.37 in 10.0 mi WSW 13.8 mph 17.3 mph N/A   Overcast
8:51 AM 44.6 °F 39.2 °F 32.0 °F 61% 29.39 in 10.0 mi WSW 10.4 mph 21.9 mph N/A   Overcast
9:51 AM 45.0 °F 38.2 °F 32.0 °F 60% 29.41 in 10.0 mi West 15.0 mph 25.3 mph 0.00 in Rain Light Rain
10:51 AM 46.4 °F 40.4 °F 33.8 °F 62% 29.42 in 10.0 mi WSW 13.8 mph 20.7 mph N/A Rain Light Rain
11:51 AM 50.0 °F - 33.1 °F 52% 29.43 in 10.0 mi West 20.7 mph 32.2 mph 0.00 in   Overcast
12:51 PM 48.9 °F - 30.9 °F 50% 29.43 in 10.0 mi WSW 15.0 mph 26.5 mph N/A   Overcast
1:51 PM 50.0 °F - 30.0 °F 46% 29.43 in 10.0 mi WSW 16.1 mph 26.5 mph N/A   Overcast
2:51 PM 50.0 °F - 30.2 °F 47% 29.43 in 10.0 mi WSW 15.0 mph 23.0 mph N/A   Overcast
3:51 PM 51.1 °F - 30.0 °F 44% 29.45 in 10.0 mi West 15.0 mph 25.3 mph N/A   Overcast
4:51 PM 50.0 °F - 32.0 °F 50% 29.47 in 10.0 mi West 10.4 mph - N/A   Overcast
5:51 PM 48.9 °F - 30.9 °F 50% 29.49 in 10.0 mi West 12.7 mph 23.0 mph N/A   Overcast
6:51 PM 48.0 °F - 30.9 °F 52% 29.53 in 10.0 mi West 10.4 mph 17.3 mph N/A   Overcast
7:51 PM 48.0 °F - 30.9 °F 52% 29.56 in 10.0 mi WSW 11.5 mph 19.6 mph N/A   Overcast
8:51 PM 48.0 °F - 30.9 °F 52% 29.57 in 10.0 mi WSW 10.4 mph - N/A   Overcast
9:51 PM 48.0 °F - 30.9 °F 52% 29.60 in 10.0 mi WSW 9.2 mph 18.4 mph N/A   Overcast
10:51 PM 46.4 °F 41.9 °F 30.2 °F 53% 29.60 in 10.0 mi WSW 9.2 mph - N/A   Mostly Cloudy
11:51 PM 45.0 °F 40.1 °F 32.0 °F 60% 29.60 in 10.0 mi WSW 9.2 mph - N/A   Mostly Cloudy